Weather in Maraza

Azerbaijan     40˚31′55″N   48˚55′33″E
temp.,
°C
wind,
m/s
gust,
m/s
humid.,
%
clouds,
%
prec.,
mm/h
press.,
hPa
HPBL,
m
29 november, sun
sun2901:00+5˚sw2687100 0.1 1029346
04:00+6˚ssw3794100 0.1 1028412
07:00+6˚ssw2594100 0.0 1028373
10:00+6˚sw1287100 0.0 1028286
13:00+8˚ssw228199 0.0 1027424
16:00+7˚s2283100 0.0 1027341
19:00+6˚se2290100 0.1 1028238
22:00+6˚ese1293100 0.8 1028215
30 november, mon
mon3001:00+5˚ene2393100 1.3 1027294
04:00+4˚se1195100 4.2 1027143
07:00+3˚ese2296100 2.5 1026161
10:00+3˚e2296100 3.8 1027217
13:00+4˚ene2394100 0.8 1026276
16:00+4˚ne2388100 1.1 1025317
19:00+4˚nne1385100 0.1 1026315
22:00+3˚ne2590100 0.3 1026371
1 december, tue
tue101:00+3˚n1192100 0.3 1025146
04:00+3˚n1193100 0.3 1024147
07:00+4˚ssw2292100 0.0 1024211
10:00+4˚sw238899 0.0 1024358
13:00+6˚wsw357689 0.0 1022493
16:00+7˚wsw257371 0.0 1022497
19:00+5˚w11860 0.0 102322
22:00+4˚ssw11900 0.0 102422
2 december, wed
wed201:00+3˚wsw11920 0.0 102422
04:00+3˚nw22880 0.0 102422
07:00+2˚n11870 0.0 102522
10:00+6˚n11690 0.0 102693
13:00+8˚n11620 0.0 1025514
16:00+8˚ese336934 0.0 1024450
19:00+7˚nne1276100 0.0 1026207
22:00+7˚n1378100 0.0 1027321
3 december, thu
thu301:00+6˚ne2481100 0.0 1027356
04:00+6˚ene2394100 0.0 1028219
07:00+5˚ene1295100 0.1 1028179
10:00+5˚ene1191100 0.3 1030193
13:00+5˚se1192100 0.1 1029191
16:00+5˚se2295100 0.3 1029163
19:00+4˚se2295100 0.1 1030161
22:00+4˚se2296100 0.2 1030142